Starlink 32501

operational
NORAD ID: 61890 Int'l Des: 2024-204 Owner: SPXS Country: US Constellation: starlink
LEOCIRCULAR

About Starlink 32501

Description loading...

Live Position

Loading 3D Globe...

Upcoming Passes

Altitude History

Altitude vs Time

uPlot chart will show altitude changes over time

Two-Line Element Set

1 61890U 24204S 25305.53699570 -.00001154 00000-0 -26864-4 0 9998
2 61890 53.1608 2.5557 0000958 110.9872 249.1232 15.30195286 55477
Epoch: Nov 1, 2025 • Age: 26 hours

Current Status

Altitude 477.3 km
Velocity 7.63 km/s
Sub-Earth Point 35.80°N, 115.25°W
Launch Date Nov 9, 2024
Age 0.9 years
Type internet

Technical Details

Classification Payload
Mass 730.00 kg
Dry Mass 700.00 kg
Total Mass 730.00 kg
Length 0.30 m
Diameter 4.10 m
Span 29.00 m
Shape Box + pan
Manufacturer SPXS
Bus Type Starlink V2M
Phase Status In Orbit
Owner/State SPXS/US

Large Constellations

Loading constellations...